Location: Banff
(51.1670°N, 115.5670°W)
Time: 17:54:48
(UTC-06:00)

Amateur Radio Satellites - All Passes

Search period start: 31 March 2015 17:24
Search period end: 01 April 2015 17:24
Location: Banff, 51.1670°N, 115.5670°W

Satellite Date Start Highest point End Downlink Frequencies (MHz)
Time Altitude Azimuth
YUBILEINY 31 Mar 17:29:03 17:35:35 21° 311° (NW) 17:41:51 435.215
STARS 31 Mar 17:31:03 17:35:24 57° 289° (WNW) 17:39:43 437.465
AO-7 31 Mar 17:32:49 17:40:49 48° 261° (W) 17:48:47 29.400- 29.500
SWISSCUBE 31 Mar 17:35:16 17:37:29 13° 308° (NW) 17:39:32 437.505
BEESAT 31 Mar 17:37:44 17:40:01 13° 307° (NW) 17:42:08 436.000
CUTE-I 31 Mar 17:46:42 17:51:06 28° 60° (ENE) 17:55:37 437.470
Cubesat XI-IV 31 Mar 17:47:33 17:52:02 28° 60° (ENE) 17:56:35 437.490
AIST 2 31 Mar 17:53:01 17:56:13 20° 23° (NNE) 17:59:26 435.215
BEESAT 2 31 Mar 18:04:47 18:08:38 35° 36° (NE) 18:12:27 435.950
JAS-2 31 Mar 18:26:23 18:32:39 30° 273° (W) 18:39:13 435.910
BEESAT 3 31 Mar 18:38:51 18:43:00 66° 46° (NE) 18:47:04 437.485
KKS-1 31 Mar 18:43:22 18:45:04 12° 307° (NW) 18:46:35 437.445
RS-15 31 Mar 18:43:48 18:52:11 28° 105° (ESE) 19:01:04 29.354- 29.394
AUBIESAT-1 31 Mar 18:45:37 18:49:41 27° 97° (E) 18:53:44 437.475
HO-68 31 Mar 18:47:14 18:50:55 15° 39° (NE) 18:54:49 435.675
PCSat 31 Mar 18:51:07 18:54:54 18° 342° (NNW) 18:58:38 145.827
MOZHAYETS 4 31 Mar 18:57:18 19:01:58 73° 287° (WNW) 19:06:36
M-CUBED/EXP-1 PRIME 31 Mar 19:11:54 19:16:38 48° 104° (ESE) 19:21:17 437.505
CUBESAT XI-V 31 Mar 19:15:01 19:18:19 19° 88° (E) 19:21:43 437.345
STRAND 1 31 Mar 19:25:27 19:28:07 15° 85° (E) 19:31:00 437.568
CUTE-I 31 Mar 19:25:37 19:30:54 58° 259° (WSW) 19:36:13 437.470
Cubesat XI-IV 31 Mar 19:26:35 19:31:53 57° 259° (W) 19:37:11 437.490
AIST 2 31 Mar 19:31:17 19:35:34 68° 46° (NE) 19:39:47 435.215
BEESAT 2 31 Mar 19:42:55 19:46:52 43° 237° (WSW) 19:50:46 435.950
BRITE-PL 31 Mar 19:45:22 19:48:14 17° 61° (ENE) 19:51:07 437.365/2234.400
GONETS M04 31 Mar 19:46:20 19:54:25 47° 88° (E) 20:02:41
SO-50 31 Mar 19:47:16 19:51:49 52° 124° (SE) 19:56:31 436.795
DOVE 4 31 Mar 19:57:42 19:58:36 11° 55° (NE) 19:59:40 437.250
BEESAT 3 31 Mar 20:17:39 20:20:40 19° 244° (WSW) 20:23:35 437.485
GOMX 1 31 Mar 20:18:28 20:21:47 22° 63° (ENE) 20:25:06 467.674
AUBIESAT-1 31 Mar 20:20:01 20:24:44 52° 297° (WNW) 20:29:22 437.475
HO-68 31 Mar 20:30:20 20:37:08 49° 61° (ENE) 20:44:01 435.675
CANX-2 31 Mar 20:32:36 20:36:11 27° 65° (ENE) 20:39:51 2200.000
PRISM 31 Mar 20:35:02 20:39:15 78° 104° (ESE) 20:43:24 437.425
MOZHAYETS 4 31 Mar 20:36:16 20:38:28 13° 306° (NW) 20:40:30
PCSat 31 Mar 20:37:15 20:40:26 15° 8° (N) 20:43:39 145.827
CUTE 1.7 + AOD 2 31 Mar 20:45:52 20:49:40 33° 66° (ENE) 20:53:32 437.475
M-CUBED/EXP-1 PRIME 31 Mar 20:47:03 20:51:20 31° 303° (WNW) 20:55:31 437.505
CUBEBUG 2 31 Mar 20:49:51 20:50:56 11° 55° (NE) 20:52:11 437.445
CUBESAT XI-V 31 Mar 20:51:37 20:56:14 61° 289° (WNW) 21:00:47 437.345
RS-15 31 Mar 20:52:14 21:03:09 85° 128° (SE) 21:14:24 29.354- 29.394
CINEMA 3 31 Mar 20:53:12 20:56:05 19° 61° (ENE) 20:59:04 145.822/145.860
AAUSAT CUBESAT 2 31 Mar 21:00:34 21:04:10 29° 65° (ENE) 21:07:51 437.432
STRAND 1 31 Mar 21:03:01 21:08:12 88° 105° (ESE) 21:13:19 437.568
AIST 2 31 Mar 21:10:38 21:13:46 20° 245° (WSW) 21:16:48 435.215
SEEDS 31 Mar 21:10:54 21:14:58 48° 70° (ENE) 21:19:05 437.485
UKube-1 31 Mar 21:19:10 21:21:02 13° 55° (NE) 21:23:03 .
DANDE 31 Mar 21:20:58 21:22:36 15° 94° (E) 21:24:14 436.750
BRITE-PL 31 Mar 21:21:55 21:26:26 68° 258° (WSW) 21:30:42 437.365/2234.400
SO-50 31 Mar 21:28:07 21:32:33 37° 326° (NW) 21:37:07 436.795
COMPASS 1 31 Mar 21:29:14 21:33:22 60° 72° (ENE) 21:37:34 437.405
DOVE 4 31 Mar 21:31:31 21:35:44 72° 74° (ENE) 21:39:53 437.250
DX 1 31 Mar 21:31:52 21:34:38 17° 58° (ENE) 21:37:30 434.975-435.025
GONETS M04 31 Mar 21:42:52 21:51:19 51° 291° (WNW) 21:59:49
Oscar 11 31 Mar 21:45:05 21:49:08 41° 68° (ENE) 21:53:14 145.826/435.025
GOMX 1 31 Mar 21:55:33 21:59:46 47° 261° (W) 22:03:50 467.674
AUBIESAT-1 31 Mar 21:56:41 21:58:37 12° 316° (NW) 22:00:24 437.475
CUSAT 1 31 Mar 21:56:54 21:59:31 73° 101° (E) 22:02:10 437.405
DELFI C3 31 Mar 21:58:47 22:02:38 42° 69° (ENE) 22:06:33 145.870
FUNcube-1 31 Mar 22:01:18 22:04:59 31° 66° (ENE) 22:08:44 145.935
CANX-2 31 Mar 22:08:00 22:12:00 38° 263° (W) 22:16:02 2200.000
PRISM 31 Mar 22:11:42 22:14:14 15° 303° (WNW) 22:16:39 437.425
UWE-3 31 Mar 22:12:16 22:16:15 48° 70° (ENE) 22:20:20 435.000/436.395/437.385
ZACube-1 31 Mar 22:14:56 22:18:51 42° 69° (ENE) 22:22:52 437.345
CUBEBUG 1 31 Mar 22:16:32 22:17:44 11° 54° (NE) 22:19:07 437.445
HO-68 31 Mar 22:18:10 22:25:00 44° 263° (W) 22:31:50 435.675
PCSat 31 Mar 22:20:57 22:25:39 29° 33° (NNE) 22:30:23 145.827
VELOX 1 31 Mar 22:21:48 22:25:13 23° 61° (ENE) 22:28:43 145.980
CUTE 1.7 + AOD 2 31 Mar 22:21:48 22:25:37 31° 265° (W) 22:29:27 437.475
CUBEBUG 2 31 Mar 22:22:48 22:26:56 73° 74° (ENE) 22:31:08 437.445
AISAT 31 Mar 22:27:25 22:31:02 26° 63° (ENE) 22:34:44 437.250
CINEMA 3 31 Mar 22:28:52 22:32:59 57° 260° (W) 22:37:06 145.822/145.860
CUBESAT XI-V 31 Mar 22:31:25 22:32:50 11° 308° (NW) 22:34:04 437.345
AAUSAT CUBESAT 2 31 Mar 22:35:53 22:39:45 35° 264° (W) 22:43:38 437.432
STRAND 1 31 Mar 22:43:19 22:46:48 18° 305° (NW) 22:50:09 437.568
HUMSAT D 31 Mar 22:44:33 22:48:27 45° 69° (ENE) 22:52:27 437.325/437.525
SEEDS 31 Mar 22:47:45 22:51:03 21° 269° (W) 22:54:19 437.485
UKube-1 31 Mar 22:52:12 22:56:32 79° 75° (ENE) 23:00:55 .
50 SAT 31 Mar 22:59:54 23:03:36 43° 69° (ENE) 23:07:24 437.505
DANDE 31 Mar 23:03:46 23:05:47 18° 292° (WNW) 23:07:43 436.750
ESTCUBE 1 31 Mar 23:05:36 23:09:35 31° 65° (ENE) 23:13:37 437.505/2401.250
DX 1 31 Mar 23:06:03 23:10:25 75° 256° (WSW) 23:14:48 434.975-435.025
RS-15 31 Mar 23:06:12 23:16:46 48° 339° (NNW) 23:27:41 29.354- 29.394
COMPASS 1 31 Mar 23:06:39 23:09:31 17° 272° (W) 23:12:16 437.405
ANTELSAT 31 Mar 23:10:22 23:12:54 15° 86° (E) 23:15:38 437.575/2403.000
SO-50 31 Mar 23:11:01 23:14:24 18° 350° (N) 23:17:49 436.795
DOVE 4 31 Mar 23:11:50 23:14:06 14° 273° (W) 23:16:12 437.250
Oscar 11 31 Mar 23:21:48 23:25:29 26° 267° (W) 23:29:07 145.826/435.025
TISAT 1 31 Mar 23:29:39 23:31:38 13° 57° (ENE) 23:33:45 437.305
NANOSAT C BR1 31 Mar 23:30:23 23:31:20 11° 84° (E) 23:32:29 145.865
DELFI C3 31 Mar 23:34:43 23:38:01 23° 268° (W) 23:41:17 145.870
YUBILEINY 31 Mar 23:35:22 23:41:58 23° 51° (NE) 23:48:46 435.215
POLYITAN 1 31 Mar 23:36:20 23:38:13 13° 86° (E) 23:40:17 437.675
FUNcube-1 31 Mar 23:37:37 23:41:20 31° 265° (W) 23:45:06 145.935
GONETS M04 31 Mar 23:46:07 23:50:59 15° 320° (NW) 23:55:31
SPROUT 31 Mar 23:48:37 23:51:52 22° 62° (ENE) 23:55:11 437.525
CUBEBUG 1 31 Mar 23:48:59 23:53:21 66° 72° (ENE) 23:57:43 437.445
UWE-3 31 Mar 23:49:58 23:53:09 20° 270° (W) 23:56:15 435.000/436.395/437.385
ZACube-1 31 Mar 23:52:06 23:55:28 23° 269° (W) 23:58:48 437.345
VELOX 1 31 Mar 23:57:09 00:01:30 53° 259° (W) 00:05:53 145.980
CUBEBUG 2 01 Apr 00:02:01 00:04:15 14° 274° (W) 00:06:21 437.445
AISAT 01 Apr 00:03:11 00:07:28 45° 261° (W) 00:11:45 437.250
ISS 01 Apr 00:03:22 00:06:27 40° 154° (SSE) 00:09:32 145.825
PCSat 01 Apr 00:04:13 00:09:41 80° 236° (SW) 00:15:07 145.827
UNISAT 6 01 Apr 00:05:04 00:09:27 44° 98° (E) 00:13:56 437.425
QB50P1 01 Apr 00:10:41 00:14:16 26° 93° (E) 00:17:54 145.935-145.965
DUCHIFAT 1 01 Apr 00:10:55 00:14:28 26° 93° (E) 00:18:04 145.980
TIGRISAT 01 Apr 00:13:58 00:18:26 52° 100° (E) 00:22:59 435.000
HUMSAT D 01 Apr 00:21:15 00:24:30 22° 269° (W) 00:27:41 437.325/437.525
QB50P2 01 Apr 00:26:17 00:30:15 38° 97° (E) 00:34:14 145.880/145.840
UKube-1 01 Apr 00:30:57 00:33:19 14° 273° (W) 00:35:32 .
50 SAT 01 Apr 00:35:43 00:38:45 21° 269° (W) 00:41:45 437.505
BUGSAT 1 01 Apr 00:38:56 00:42:39 35° 96° (E) 00:46:23 437.445
ESTCUBE 1 01 Apr 00:42:08 00:46:24 38° 263° (W) 00:50:40 437.505/2401.250
ITUPSAT 1 01 Apr 00:45:13 00:48:10 17° 56° (NE) 00:51:14 437.325
ANTELSAT 01 Apr 00:45:43 00:50:20 81° 286° (WNW) 00:54:59 437.575/2403.000
SO-50 01 Apr 00:53:06 00:56:38 19° 14° (NNE) 01:00:14 436.795
POPSAT HIP 1 01 Apr 00:54:17 00:58:31 69° 102° (ESE) 01:02:45 437.405
TISAT 1 01 Apr 01:02:37 01:06:51 88° 76° (ENE) 01:11:05 437.305
NANOSAT C BR1 01 Apr 01:03:42 01:07:58 85° 107° (ESE) 01:12:12 145.865
POLYITAN 1 01 Apr 01:10:32 01:14:48 82° 286° (WNW) 01:19:04 437.675
RS-15 01 Apr 01:21:39 01:32:08 43° 11° (N) 01:43:04 29.354- 29.394
SPROUT 01 Apr 01:23:29 01:27:41 52° 260° (W) 01:31:54 437.525
CUBEBUG 1 01 Apr 01:27:18 01:30:13 17° 272° (W) 01:33:01 437.445
SWISSCUBE 01 Apr 01:29:57 01:34:21 38° 66° (ENE) 01:38:49 437.505
YUBILEINY 01 Apr 01:31:41 01:40:35 78° 77° (ENE) 01:49:23 435.215
BEESAT 01 Apr 01:32:26 01:36:48 37° 65° (ENE) 01:41:15 436.000
ISS 01 Apr 01:39:27 01:42:44 85° 353° (N) 01:45:59 145.825
UNISAT 6 01 Apr 01:42:12 01:46:06 28° 296° (WNW) 01:50:01 437.425
QB50P1 01 Apr 01:46:19 01:50:16 38° 292° (WNW) 01:54:12 145.935-145.965
DUCHIFAT 1 01 Apr 01:46:30 01:50:27 39° 292° (WNW) 01:54:21 145.980
PCSat 01 Apr 01:49:08 01:52:22 16° 254° (WSW) 01:55:22 145.827
TIGRISAT 01 Apr 01:51:14 01:54:56 24° 298° (WNW) 01:58:37 435.000
QB50P2 01 Apr 02:02:25 02:06:04 28° 296° (WNW) 02:09:40 145.880/145.840
Oscar 19 01 Apr 02:03:38 02:06:53 17° 86° (E) 02:10:20 437.125/150
BUGSAT 1 01 Apr 02:14:37 02:18:05 27° 295° (WNW) 02:21:28 437.445
ITUPSAT 1 01 Apr 02:20:37 02:25:28 90° 41° (NE) 02:30:20 437.325
ANTELSAT 01 Apr 02:24:01 02:26:29 14° 304° (NW) 02:28:50 437.575/2403.000
POPSAT HIP 1 01 Apr 02:31:11 02:33:59 17° 301° (WNW) 02:36:41 437.405
KKS-1 01 Apr 02:32:05 02:35:52 29° 64° (ENE) 02:39:43 437.445
SO-50 01 Apr 02:33:38 02:38:22 43° 37° (NE) 02:43:07 436.795
NANOSAT C BR1 01 Apr 02:40:55 02:43:17 14° 303° (WNW) 02:45:32 145.865
TISAT 1 01 Apr 02:41:41 02:43:21 12° 275° (W) 02:44:49 437.305
Gurwin Techsat 1B 01 Apr 02:43:21 02:44:33 11° 81° (E) 02:46:05 435.225
POLYITAN 1 01 Apr 02:48:09 02:50:06 13° 304° (NW) 02:51:54 437.675
STARS 01 Apr 02:57:08 03:01:01 32° 65° (ENE) 03:04:57 437.465
SWISSCUBE 01 Apr 03:07:53 03:12:17 34° 265° (W) 03:16:39 437.505
BEESAT 01 Apr 03:10:19 03:14:42 34° 264° (W) 03:19:06 436.000
ITAMSAT 1 01 Apr 03:14:59 03:19:05 24° 91° (E) 03:23:16 435.822/435.867
ISS 01 Apr 03:15:55 03:19:10 82° 196° (SSW) 03:22:25 145.825
YUBILEINY 01 Apr 03:29:21 03:36:39 29° 280° (W) 03:43:41 435.215
RS-15 01 Apr 03:35:16 03:46:37 73° 42° (NE) 03:58:32 29.354- 29.394
AIST 1 01 Apr 03:36:58 03:38:06 11° 82° (E) 03:39:28
Oscar 19 01 Apr 03:41:46 03:46:58 82° 289° (WNW) 03:52:11 437.125/150
O/OREOS (USA 219) 01 Apr 03:59:40 04:03:03 21° 103° (ESE) 04:06:33 437.305
ITUPSAT 1 01 Apr 04:01:31 04:04:09 14° 275° (W) 04:06:34 437.325
AUBIESAT-1 01 Apr 04:06:15 04:08:25 14° 46° (NE) 04:10:47 437.475
KKS-1 01 Apr 04:08:13 04:12:24 40° 262° (W) 04:16:36 437.445
SO-50 01 Apr 04:14:17 04:19:00 44° 238° (WSW) 04:23:40 436.795
Gurwin Techsat 1B 01 Apr 04:20:25 04:25:43 66° 102° (ESE) 04:31:01 435.225
MOZHAYETS 4 01 Apr 04:27:53 04:31:50 29° 63° (ENE) 04:35:51
HORYU 2 01 Apr 04:31:41 04:35:14 23° 92° (E) 04:38:50 437.375
M-CUBED/EXP-1 PRIME 01 Apr 04:31:49 04:35:08 22° 53° (NE) 04:38:43 437.505
STARS 01 Apr 04:33:28 04:37:29 34° 264° (W) 04:41:29 437.465
ISS 01 Apr 04:52:30 04:55:18 27° 212° (SSW) 04:58:05 145.825
ITAMSAT 1 01 Apr 04:53:55 04:59:02 60° 291° (WNW) 05:04:07 435.822/435.867
AIST 1 01 Apr 05:10:41 05:15:06 86° 100° (E) 05:19:31
Oscar 19 01 Apr 05:22:23 05:25:39 17° 306° (NW) 05:28:46 437.125/150
AO-7 01 Apr 05:27:51 05:35:43 45° 98° (E) 05:43:37 29.400- 29.500
JAS-2 01 Apr 05:28:59 05:36:27 47° 94° (E) 05:43:23 435.910
O/OREOS (USA 219) 01 Apr 05:37:34 05:42:07 59° 302° (WNW) 05:46:41 437.305
AUBIESAT-1 01 Apr 05:38:11 05:42:25 68° 66° (ENE) 05:47:01 437.475
RS-15 01 Apr 05:48:01 05:58:40 46° 246° (WSW) 06:09:35 29.354- 29.394
GONETS M04 01 Apr 05:49:25 05:57:05 32° 59° (ENE) 06:04:54
PRISM 01 Apr 05:56:37 05:59:16 17° 59° (ENE) 06:02:03 437.425
Gurwin Techsat 1B 01 Apr 06:01:04 06:05:20 24° 301° (WNW) 06:09:30 435.225
MOZHAYETS 4 01 Apr 06:04:29 06:08:55 43° 263° (W) 06:13:23
M-CUBED/EXP-1 PRIME 01 Apr 06:05:25 06:09:37 63° 253° (WSW) 06:14:11 437.505
HORYU 2 01 Apr 06:07:48 06:12:11 51° 291° (WNW) 06:16:33 437.375
CUBESAT XI-V 01 Apr 06:23:07 06:27:20 34° 66° (ENE) 06:31:36 437.345
ITAMSAT 1 01 Apr 06:35:19 06:37:37 13° 310° (NW) 06:39:44 435.822/435.867
CUSAT 1 01 Apr 06:44:40 06:46:39 13° 62° (ENE) 06:49:03 437.405
STRAND 1 01 Apr 06:45:38 06:50:17 36° 64° (ENE) 06:54:59 437.568
AIST 1 01 Apr 06:51:07 06:53:29 14° 301° (WNW) 06:55:43
PHONESAT 2.4 01 Apr 07:11:46 07:13:08 12° 167° (SSE) 07:14:33 2401.200-2431.200
JAS-2 01 Apr 07:14:05 07:21:34 50° 297° (WNW) 07:28:29 435.910
AUBIESAT-1 01 Apr 07:14:52 07:17:49 18° 267° (W) 07:20:47 437.475
O/OREOS (USA 219) 01 Apr 07:20:06 07:22:36 14° 325° (NW) 07:24:58 437.305
AO-7 01 Apr 07:20:45 07:28:47 55° 300° (WNW) 07:36:46 29.400- 29.500
PRISM 01 Apr 07:30:06 07:34:19 72° 257° (WSW) 07:38:34 437.425
CUTE-I 01 Apr 07:37:28 07:42:25 38° 96° (E) 07:47:22 437.470
Cubesat XI-IV 01 Apr 07:38:35 07:43:34 39° 96° (E) 07:48:34 437.490
VERMONT LUNAR 01 Apr 07:42:06 07:43:53 14° 181° (S) 07:45:39 437.305
GONETS M04 01 Apr 07:46:06 07:54:56 76° 264° (W) 08:03:44
DANDE 01 Apr 07:51:53 07:55:27 34° 72° (ENE) 08:00:07 436.750
CUBESAT XI-V 01 Apr 08:00:26 08:04:47 36° 264° (W) 08:09:07 437.345
STRAND 1 01 Apr 08:24:39 08:29:29 40° 263° (W) 08:34:19 437.568
CUSAT 1 01 Apr 08:25:35 08:29:46 88° 70° (ENE) 08:35:27 437.405
PHONESAT 2.4 01 Apr 08:48:35 08:50:38 15° 183° (S) 08:52:41 2401.200-2431.200
JAS-2 01 Apr 09:00:27 09:04:55 16° 319° (NW) 09:09:01 435.910
AO-7 01 Apr 09:14:30 09:20:00 20° 324° (NW) 09:25:17 29.400- 29.500
CUTE-I 01 Apr 09:17:36 09:22:33 39° 296° (WNW) 09:27:26 437.470
Cubesat XI-IV 01 Apr 09:18:47 09:23:42 38° 296° (WNW) 09:28:34 437.490
BRITE-PL 01 Apr 09:21:20 09:24:40 23° 92° (E) 09:28:11 437.365/2234.400
DOVE 4 01 Apr 09:26:19 09:28:17 13° 86° (E) 09:30:30 437.250
DANDE 01 Apr 09:35:09 09:38:43 29° 263° (W) 09:43:11 436.750
UNISAT 6 01 Apr 09:36:02 09:37:28 12° 54° (NE) 09:39:03 437.425
HO-68 01 Apr 09:39:50 09:45:58 30° 91° (E) 09:52:13 435.675
TIGRISAT 01 Apr 09:44:08 09:46:05 13° 55° (NE) 09:48:13 435.000
GONETS M04 01 Apr 09:44:31 09:50:27 20° 286° (WNW) 09:55:59
CANX-2 01 Apr 09:48:14 09:51:52 26° 93° (E) 09:55:32 2200.000
GOMX 1 01 Apr 09:51:30 09:55:17 30° 95° (E) 09:59:16 467.674
CUTE 1.7 + AOD 2 01 Apr 10:01:32 10:05:24 32° 95° (E) 10:09:18 437.475
CUSAT 1 01 Apr 10:10:08 10:12:25 13° 269° (W) 10:14:45 437.405
CUBEBUG 2 01 Apr 10:10:33 10:11:51 11° 84° (E) 10:13:24 437.445
AAUSAT CUBESAT 2 01 Apr 10:13:49 10:17:23 26° 93° (E) 10:21:01 437.432
ANTELSAT 01 Apr 10:14:24 10:17:48 24° 62° (ENE) 10:21:20 437.575/2403.000
BEESAT 3 01 Apr 10:15:24 10:18:33 22° 117° (ESE) 10:21:48 437.485
CINEMA 3 01 Apr 10:18:24 10:21:54 23° 92° (E) 10:25:35 145.822/145.860
POPSAT HIP 1 01 Apr 10:18:33 10:20:53 15° 58° (ENE) 10:23:21 437.405
SEEDS 01 Apr 10:25:49 10:29:58 46° 98° (E) 10:34:06 437.485
NANOSAT C BR1 01 Apr 10:27:16 10:30:02 18° 59° (ENE) 10:32:54 145.865
POLYITAN 1 01 Apr 10:34:08 10:37:12 20° 61° (ENE) 10:40:22 437.675
COMPASS 1 01 Apr 10:43:15 10:47:29 57° 100° (E) 10:51:40 437.405
DX 1 01 Apr 10:50:51 10:52:53 13° 86° (E) 10:55:06 434.975-435.025
BRITE-PL 01 Apr 10:59:28 11:03:28 43° 290° (WNW) 11:07:36 437.365/2234.400
DOVE 4 01 Apr 11:02:22 11:06:43 84° 283° (WNW) 11:11:15 437.250
Oscar 11 01 Apr 11:03:08 11:07:16 40° 97° (E) 11:11:24 145.826/435.025
DUCHIFAT 1 01 Apr 11:08:17 11:12:10 38° 68° (ENE) 11:16:06 145.980
QB50P1 01 Apr 11:08:21 11:12:15 39° 68° (ENE) 11:16:13 145.935-145.965
DELFI C3 01 Apr 11:08:26 11:12:13 35° 96° (E) 11:16:01 145.870
UNISAT 6 01 Apr 11:09:14 11:13:30 71° 73° (ENE) 11:17:53 437.425
AIST 2 01 Apr 11:12:46 11:16:18 26° 118° (ESE) 11:19:55 435.215
TIGRISAT 01 Apr 11:17:54 11:22:11 83° 75° (ENE) 11:26:35 435.000
BEESAT 2 01 Apr 11:18:59 11:23:05 67° 127° (SE) 11:27:15 435.950
FUNcube-1 01 Apr 11:20:09 11:24:09 34° 95° (E) 11:28:15 145.935
CANX-2 01 Apr 11:23:53 11:27:58 40° 291° (WNW) 11:32:00 2200.000
QB50P2 01 Apr 11:24:07 11:28:14 56° 71° (ENE) 11:32:23 145.880/145.840
HO-68 01 Apr 11:27:09 11:34:21 69° 293° (WNW) 11:41:28 435.675
GOMX 1 01 Apr 11:29:38 11:33:31 34° 292° (WNW) 11:37:32 467.674
UWE-3 01 Apr 11:32:57 11:37:17 54° 100° (E) 11:41:45 435.000/436.395/437.385
BUGSAT 1 01 Apr 11:33:50 11:37:50 50° 70° (ENE) 11:41:49 437.445
ZACube-1 01 Apr 11:34:12 11:38:26 46° 99° (E) 11:42:46 437.345
CUTE 1.7 + AOD 2 01 Apr 11:37:26 11:41:21 33° 294° (WNW) 11:45:13 437.475
VELOX 1 01 Apr 11:43:10 11:46:25 20° 90° (E) 11:49:46 145.980
CUBEBUG 2 01 Apr 11:44:53 11:49:20 82° 103° (ESE) 11:53:54 437.445
AISAT 01 Apr 11:49:07 11:52:40 24° 92° (E) 11:56:15 437.250
AAUSAT CUBESAT 2 01 Apr 11:49:12 11:53:10 39° 292° (WNW) 11:57:05 437.432
ANTELSAT 01 Apr 11:50:12 11:54:22 48° 261° (W) 11:58:38 437.575/2403.000
POPSAT HIP 1 01 Apr 11:52:02 11:56:16 81° 255° (WSW) 12:00:30 437.405
BEESAT 3 01 Apr 11:52:12 11:56:18 60° 315° (NW) 12:00:25 437.485
CINEMA 3 01 Apr 11:55:07 11:59:22 49° 290° (WNW) 12:03:48 145.822/145.860
HUMSAT D 01 Apr 11:59:01 12:03:06 42° 98° (E) 12:07:12 437.325/437.525
NANOSAT C BR1 01 Apr 12:01:18 12:05:29 66° 258° (WSW) 12:09:41 145.865
SEEDS 01 Apr 12:02:04 12:05:34 24° 297° (WNW) 12:08:59 437.485
50 SAT 01 Apr 12:07:16 12:10:59 34° 96° (E) 12:14:44 437.505
POLYITAN 1 01 Apr 12:08:41 12:12:50 55° 260° (W) 12:16:59 437.675
UKube-1 01 Apr 12:10:44 12:15:05 70° 103° (ESE) 12:19:23 .
COMPASS 1 01 Apr 12:19:41 12:22:51 20° 299° (WNW) 12:25:55 437.405
O/OREOS (USA 219) 01 Apr 12:24:30 12:27:46 19° 41° (NE) 12:31:06 437.305
DX 1 01 Apr 12:25:26 12:29:48 82° 287° (WNW) 12:34:09 434.975-435.025
ESTCUBE 1 01 Apr 12:29:33 12:33:36 31° 95° (E) 12:37:38 437.505/2401.250
Oscar 11 01 Apr 12:39:35 12:43:20 28° 296° (WNW) 12:47:01 145.826/435.025
DOVE 4 01 Apr 12:41:50 12:43:57 13° 303° (WNW) 12:45:58 437.250
DELFI C3 01 Apr 12:43:46 12:47:19 28° 295° (WNW) 12:50:48 145.870
DUCHIFAT 1 01 Apr 12:44:33 12:48:09 26° 267° (W) 12:51:41 145.980
QB50P1 01 Apr 12:44:43 12:48:17 26° 267° (W) 12:51:49 145.935-145.965
YUBILEINY 01 Apr 12:46:18 12:51:44 19° 74° (ENE) 12:57:33 435.215
UNISAT 6 01 Apr 12:48:16 12:50:54 15° 273° (W) 12:53:24 437.425
AIST 2 01 Apr 12:50:26 12:54:40 55° 317° (NW) 12:58:55 435.215
AO-7 01 Apr 12:55:50 12:58:28 12° 21° (NNE) 13:01:20 29.400- 29.500
FUNcube-1 01 Apr 12:56:33 13:00:30 33° 294° (WNW) 13:04:28 145.935
TIGRISAT 01 Apr 12:57:35 12:59:40 13° 275° (W) 13:01:35 435.000
BEESAT 2 01 Apr 12:58:00 13:01:36 27° 329° (NNW) 13:05:11 435.950
QB50P2 01 Apr 13:01:31 13:04:32 18° 270° (W) 13:07:28 145.880/145.840
ITAMSAT 1 01 Apr 13:02:11 13:04:18 13° 50° (NE) 13:06:35 435.822/435.867
SPROUT 01 Apr 13:05:37 13:08:44 20° 90° (E) 13:11:55 437.525
CUBEBUG 1 01 Apr 13:09:02 13:13:22 65° 102° (ESE) 13:17:40 437.445
UWE-3 01 Apr 13:10:07 13:13:34 22° 298° (WNW) 13:17:00 435.000/436.395/437.385
BUGSAT 1 01 Apr 13:10:34 13:13:38 19° 269° (W) 13:16:35 437.445
ZACube-1 01 Apr 13:11:00 13:14:37 25° 296° (WNW) 13:18:15 437.345
HO-68 01 Apr 13:15:55 13:21:00 21° 314° (NW) 13:25:53 435.675
VELOX 1 01 Apr 13:19:02 13:23:22 54° 290° (WNW) 13:27:39 145.980
CUBEBUG 2 01 Apr 13:22:48 13:25:34 16° 301° (WNW) 13:28:13 437.445
Oscar 19 01 Apr 13:25:06 13:29:51 40° 65° (ENE) 13:34:40 437.125/150
AISAT 01 Apr 13:25:16 13:29:32 46° 291° (WNW) 13:33:44 437.250
BEESAT 3 01 Apr 13:32:13 13:35:10 18° 338° (NNW) 13:38:04 437.485
POPSAT HIP 1 01 Apr 13:32:31 13:32:59 10° 276° (W) 13:33:12 437.405
HUMSAT D 01 Apr 13:35:09 13:38:42 25° 296° (WNW) 13:42:12 437.325/437.525
50 SAT 01 Apr 13:42:20 13:45:49 28° 295° (WNW) 13:49:16 437.505
UKube-1 01 Apr 13:47:51 13:50:48 18° 302° (WNW) 13:53:38 .
O/OREOS (USA 219) 01 Apr 14:03:16 14:07:52 85° 247° (WSW) 14:12:24 437.305
DX 1 01 Apr 14:03:17 14:05:25 13° 305° (NW) 14:07:25 434.975-435.025
JAS-2 01 Apr 14:06:09 14:09:15 13° 37° (NE) 14:12:40 435.910
ESTCUBE 1 01 Apr 14:06:22 14:10:32 36° 294° (WNW) 14:14:39 437.505/2401.250
Gurwin Techsat 1B 01 Apr 14:07:55 14:12:29 30° 61° (ENE) 14:17:07 435.225
ITUPSAT 1 01 Apr 14:17:14 14:20:11 16° 87° (E) 14:23:18 437.325
TISAT 1 01 Apr 14:17:51 14:22:05 79° 103° (ESE) 14:26:18 437.305
AIST 2 01 Apr 14:31:06 14:34:09 18° 340° (NNW) 14:37:10 435.215
ITAMSAT 1 01 Apr 14:37:45 14:42:52 59° 69° (ENE) 14:48:01 435.822/435.867
YUBILEINY 01 Apr 14:38:24 14:47:09 74° 96° (E) 14:56:00 435.215
BEESAT 2 01 Apr 14:38:58 14:41:03 13° 352° (N) 14:43:06 435.950
SPROUT 01 Apr 14:40:59 14:45:11 54° 289° (WNW) 14:49:22 437.525
AO-7 01 Apr 14:41:56 14:48:38 29° 47° (NE) 14:55:30 29.400- 29.500
CUBEBUG 1 01 Apr 14:46:18 14:49:20 19° 301° (WNW) 14:52:17 437.445
PCSat 01 Apr 14:51:22 14:56:04 32° 114° (ESE) 15:00:53 145.827
SWISSCUBE 01 Apr 15:02:31 15:07:06 43° 98° (E) 15:11:39 437.505
Oscar 19 01 Apr 15:04:38 15:09:18 35° 265° (W) 15:13:59 437.125/150
BEESAT 01 Apr 15:04:51 15:09:25 42° 98° (E) 15:13:58 436.000
AIST 1 01 Apr 15:12:45 15:16:47 37° 71° (ENE) 15:20:47
BEESAT 3 01 Apr 15:12:56 15:14:43 12° 1° (N) 15:16:32 437.485
HORYU 2 01 Apr 15:34:48 15:38:56 39° 67° (ENE) 15:43:07 437.375
O/OREOS (USA 219) 01 Apr 15:44:41 15:46:36 12° 262° (W) 15:48:19 437.305
JAS-2 01 Apr 15:45:38 15:52:18 40° 59° (ENE) 15:59:27 435.910
Gurwin Techsat 1B 01 Apr 15:47:06 15:52:16 51° 261° (W) 15:57:29 435.225
ITUPSAT 1 01 Apr 15:53:55 15:58:45 77° 287° (WNW) 16:03:31 437.325
KKS-1 01 Apr 15:54:08 15:57:56 27° 93° (E) 16:01:47 437.445
TISAT 1 01 Apr 15:54:53 15:57:23 15° 302° (WNW) 15:59:47 437.305
AIST 2 01 Apr 16:12:11 16:14:19 13° 3° (N) 16:16:28 435.215
STARS 01 Apr 16:17:48 16:21:41 30° 95° (E) 16:25:37 437.465
BEESAT 2 01 Apr 16:18:18 16:20:47 15° 15° (NNE) 16:23:18 435.950
ITAMSAT 1 01 Apr 16:18:33 16:22:48 24° 269° (W) 16:26:58 435.822/435.867
AO-7 01 Apr 16:32:17 16:40:37 88° 68° (ENE) 16:48:58 29.400- 29.500
PCSat 01 Apr 16:33:57 16:39:18 56° 314° (NW) 16:44:40 145.827
YUBILEINY 01 Apr 16:37:06 16:44:57 33° 301° (WNW) 16:52:42 435.215
SWISSCUBE 01 Apr 16:40:39 16:44:50 30° 297° (WNW) 16:48:58 437.505
BEESAT 01 Apr 16:42:56 16:47:10 31° 297° (WNW) 16:51:19 436.000
AIST 1 01 Apr 16:50:42 16:54:20 26° 271° (W) 16:57:53
BEESAT 3 01 Apr 16:51:08 16:54:15 20° 25° (NNE) 16:57:23 437.485
HORYU 2 01 Apr 17:11:48 17:15:42 29° 266° (W) 17:19:36 437.375
